Wetterdaten: aktuell Dienstag, 01.09.2026 11:32
Datum Zeit Temp. A. Feuchte A. Luftdruck Regen Wind Richtung Richtung Sonnenschein Regendauer Taupunkt Windchill
01.09.2026 11:32 21,3 °C 63 % 1018,7 hPa 0,0 mm 13,1 km/h (3 Bft) W-SW 250 ° 5 min 0 min 14,0 °C 21,3 °C
01.09.2026 11:27 20,6 °C 63 % 1018,8 hPa 0,0 mm 18,5 km/h (3 Bft) N-NW 345 ° 7 min 0 min 13,3 °C 20,6 °C
01.09.2026 11:22 20,7 °C 63 % 1018,8 hPa 0,0 mm 18,7 km/h (3 Bft) NW 315 ° 3 min 0 min 13,4 °C 20,7 °C
01.09.2026 11:17 20,9 °C 62 % 1019,8 hPa 0,0 mm 16,6 km/h (3 Bft) N-NW 330 ° 5 min 0 min 13,3 °C 20,9 °C
01.09.2026 11:12 21,8 °C 62 % 1019,7 hPa 0,0 mm 7,1 km/h (2 Bft) S 170 ° 6 min 0 min 14,2 °C 21,8 °C
01.09.2026 11:07 21,0 °C 63 % 1019,8 hPa 0,0 mm 16,7 km/h (3 Bft) NO 35 ° 4 min 0 min 13,7 °C 21,0 °C
01.09.2026 11:02 21,0 °C 64 % 1019,8 hPa 0,0 mm 14,0 km/h (3 Bft) SO 130 ° 5 min 0 min 13,9 °C 21,0 °C
01.09.2026 10:57 20,5 °C 64 % 1019,9 hPa 0,0 mm 21,6 km/h (4 Bft) NW 310 ° 5 min 0 min 13,5 °C 20,5 °C
01.09.2026 10:52 20,2 °C 65 % 1020,0 hPa 0,0 mm 22,3 km/h (4 Bft) N-NW 335 ° 6 min 0 min 13,4 °C 20,2 °C
01.09.2026 10:47 20,2 °C 66 % 1020,0 hPa 0,0 mm 18,9 km/h (3 Bft) N-NW 340 ° 5 min 0 min 13,6 °C 20,2 °C
01.09.2026 10:42 20,7 °C 67 % 1019,9 hPa 0,0 mm 10,0 km/h (2 Bft) O-SO 105 ° 5 min 0 min 14,3 °C 20,7 °C
01.09.2026 10:37 20,8 °C 67 % 1019,9 hPa 0,0 mm 7,1 km/h (2 Bft) NO 45 ° 5 min 0 min 14,4 °C 20,8 °C
01.09.2026 10:32 20,3 °C 69 % 1018,9 hPa 0,0 mm 6,7 km/h (2 Bft) N-NW 340 ° 5 min 0 min 14,4 °C 20,3 °C
01.09.2026 10:27 20,2 °C 70 % 1018,9 hPa 0,0 mm 20,1 km/h (4 Bft) O-SO 115 ° 6 min 0 min 14,5 °C 20,2 °C
01.09.2026 10:22 20,3 °C 70 % 1018,9 hPa 0,0 mm 6,2 km/h (2 Bft) SW 230 ° 4 min 0 min 14,6 °C 20,3 °C
01.09.2026 10:17 19,8 °C 72 % 1020,0 hPa 0,0 mm 7,8 km/h (2 Bft) NW 305 ° 6 min 0 min 14,6 °C 19,8 °C
01.09.2026 10:12 19,1 °C 74 % 1020,2 hPa 0,0 mm 18,2 km/h (3 Bft) S 185 ° 4 min 0 min 14,4 °C 19,1 °C
01.09.2026 10:07 19,4 °C 74 % 1020,1 hPa 0,0 mm 12,9 km/h (3 Bft) S-SW 195 ° 5 min 0 min 14,6 °C 19,4 °C
01.09.2026 10:02 18,8 °C 74 % 1020,2 hPa 0,0 mm 15,9 km/h (3 Bft) SO 130 ° 5 min 0 min 14,1 °C 18,8 °C
01.09.2026 09:57 18,9 °C 74 % 1020,2 hPa 0,0 mm 11,3 km/h (2 Bft) S-SW 200 ° 5 min 0 min 14,2 °C 18,9 °C
01.09.2026 09:52 18,6 °C 77 % 1020,3 hPa 0,0 mm 19,0 km/h (3 Bft) S 170 ° 5 min 0 min 14,5 °C 18,6 °C
01.09.2026 09:47 18,4 °C 76 % 1020,3 hPa 0,0 mm 19,5 km/h (3 Bft) SO 145 ° 5 min 0 min 14,1 °C 18,4 °C
01.09.2026 09:42 18,9 °C 75 % 1020,2 hPa 0,0 mm 19,9 km/h (4 Bft) S 175 ° 6 min 0 min 14,4 °C 18,9 °C
01.09.2026 09:37 19,0 °C 76 % 1020,2 hPa 0,0 mm 5,6 km/h (2 Bft) O-SO 110 ° 5 min 0 min 14,7 °C 19,0 °C
01.09.2026 09:32 18,5 °C 78 % 1020,3 hPa 0,0 mm 3,8 km/h (1 Bft) S 180 ° 5 min 0 min 14,6 °C 18,5 °C
01.09.2026 09:27 17,8 °C 80 % 1020,4 hPa 0,0 mm 2,9 km/h (1 Bft) S-SO 165 ° 4 min 0 min 14,3 °C 17,8 °C
01.09.2026 09:22 18,0 °C 80 % 1020,4 hPa 0,0 mm 10,1 km/h (2 Bft) SO 135 ° 6 min 0 min 14,5 °C 18,0 °C
01.09.2026 09:17 17,6 °C 81 % 1019,4 hPa 0,0 mm 6,9 km/h (2 Bft) O 80 ° 5 min 0 min 14,3 °C 17,6 °C
01.09.2026 09:12 17,2 °C 81 % 1019,5 hPa 0,0 mm 12,9 km/h (3 Bft) S 175 ° 5 min 0 min 13,9 °C 17,2 °C
01.09.2026 09:07 17,0 °C 83 % 1019,5 hPa 0,0 mm 10,9 km/h (2 Bft) S-SO 155 ° 3 min 0 min 14,1 °C 17,0 °C
01.09.2026 09:02 16,9 °C 83 % 1020,6 hPa 0,0 mm 8,5 km/h (2 Bft) S-SO 155 ° 7 min 0 min 14,0 °C 16,9 °C
01.09.2026 08:57 16,7 °C 84 % 1020,6 hPa 0,0 mm 2,9 km/h (1 Bft) S 170 ° 3 min 0 min 14,0 °C 16,7 °C
01.09.2026 08:52 16,4 °C 83 % 1020,7 hPa 0,0 mm 3,1 km/h (1 Bft) O-SO 110 ° 7 min 0 min 13,5 °C 16,4 °C
01.09.2026 08:47 16,4 °C 84 % 1019,6 hPa 0,0 mm 8,3 km/h (2 Bft) SO 140 ° 5 min 0 min 13,7 °C 16,4 °C
01.09.2026 08:42 16,2 °C 83 % 1019,7 hPa 0,0 mm 7,6 km/h (2 Bft) SO 145 ° 5 min 0 min 13,3 °C 16,2 °C
01.09.2026 08:37 16,3 °C 81 % 1019,6 hPa 0,0 mm 4,7 km/h (1 Bft) S-SO 155 ° 5 min 0 min 13,0 °C 16,3 °C
01.09.2026 08:32 16,4 °C 83 % 1019,6 hPa 0,0 mm 1,4 km/h (1 Bft) O-NO 75 ° 5 min 0 min 13,5 °C 16,4 °C
01.09.2026 08:27 16,1 °C 84 % 1019,7 hPa 0,0 mm 6,2 km/h (2 Bft) O 95 ° 5 min 0 min 13,4 °C 16,1 °C
01.09.2026 08:22 16,6 °C 83 % 1019,6 hPa 0,0 mm 0,4 km/h (0 Bft) O 90 ° 3 min 0 min 13,7 °C 16,6 °C
01.09.2026 08:17 16,4 °C 84 % 1020,7 hPa 0,0 mm 0,9 km/h (0 Bft) O 95 ° 7 min 0 min 13,7 °C 16,4 °C
01.09.2026 08:12 16,0 °C 85 % 1020,7 hPa 0,0 mm 0,5 km/h (0 Bft) O-NO 70 ° 4 min 0 min 13,5 °C 16,0 °C
01.09.2026 08:07 15,8 °C 85 % 1020,8 hPa 0,0 mm 0,0 km/h (0 Bft) O 90 ° 7 min 0 min 13,3 °C 15,8 °C
01.09.2026 08:02 15,8 °C 85 % 1019,7 hPa 0,0 mm 1,3 km/h (1 Bft) O-SO 115 ° 6 min 0 min 13,3 °C 15,8 °C
01.09.2026 07:57 15,6 °C 86 % 1019,8 hPa 0,0 mm 1,3 km/h (1 Bft) O-NO 70 ° 2 min 0 min 13,3 °C 15,6 °C
01.09.2026 07:52 15,4 °C 86 % 1019,8 hPa 0,0 mm 0,5 km/h (0 Bft) O 80 ° 5 min 0 min 13,1 °C 15,4 °C
01.09.2026 07:47 15,1 °C 87 % 1019,9 hPa 0,0 mm 0,7 km/h (0 Bft) O 95 ° 5 min 0 min 13,0 °C 15,1 °C
01.09.2026 07:42 15,1 °C 87 % 1019,9 hPa 0,0 mm 0,0 km/h (0 Bft) O 90 ° 5 min 0 min 13,0 °C 15,1 °C
01.09.2026 07:37 15,0 °C 88 % 1019,9 hPa 0,0 mm 0,0 km/h (0 Bft) O 90 ° 6 min 0 min 13,0 °C 15,0 °C
01.09.2026 07:32 14,4 °C 89 % 1020,0 hPa 0,0 mm 0,0 km/h (0 Bft) N-NO 15 ° 5 min 0 min 12,6 °C 14,4 °C
_ Min-Zeit 06:32 17:17 15:52 - 19:22 - - - - 06:27 06:32
Minimum _ 12,1 °C 52 % 1012,6 hPa - 0,0 km/h (0 Bft) - - - - 11,3 °C 12,1 °C
_ Max-Zeit 15:47 06:32 08:07 12:02 14:17 - - 14:22 12:02 12:22 15:47
Maximum _ 25,8 °C 95 % 1020,8 hPa 0,0 mm 45,7 km/h
O-SO (6 Bft)
- - 7 min 0 min 18,1 °C 25,8 °C
Durchschnitt _ 18,6 °C 77 % 1016,9 hPa #0,0 mm 5,9 km/h (2 Bft) NW - #4:39 h #0 min. 14,2 °C 18,6 °C